Location: Santa Maria di Sala
(45.5070°N, 12.0300°E)
Time: 07:49:50
(UTC+02:00)

STRAND 1 - Pass Details

Date: 01 March 2024
Orbit: 764 x 779 km, 98.4° (Epoch: 16 April)

Event Time Altitude Azimuth Distance (km) Brightness Sun altitude
Rises 19:48:28 0° 4° (N) 3,265 ? -19.8°
Reaches altitude 10° 19:51:02 10° 354° (N) 2,331 ? -20.3°
Maximum altitude 19:55:25 30° 295° (WNW) 1,375 ? -21.0°
Drops below altitude 10° 19:59:47 10° 236° (SW) 2,309 ? -21.8°
Sets 20:02:19 0° 226° (SW) 3,229 ? -22.2°
